#timestamp,LO_Frequency,Hit,StdDev 
1697727615.2,286046998.8,P
1697727635.0,286046998.4,N
1697727635.9,286046998.4,N
1697727655.8,286046998.2,N
1697727675.6,286047001.3,N
1697727695.4,286047002.3,N
1697727715.3,286047004.1,N
1697727735.1,286047002.1,N
1697727755.9,286047001.4,N
1697727775.7,286047000.6,N
1697727795.5,286046998.3,N
1697727815.4,286047000.7,N
1697727835.2,286047002.2,N
1697727855.0,286047000.9,N
1697727856.0,286047000.9,N
1697727875.8,286046998.1,N
1697727895.6,286046996.8,N
1697727915.5,286047000.0,N
1697727935.3,286046997.2,N
1697727955.2,286046999.5,N
1697727975.0,286046996.9,N
1697727975.9,286046996.9,N
1697727995.8,286046993.3,Y
1697728015.6,286046997.4,P
1697728035.4,286046998.0,N
1697728055.3,286046997.3,N
1697728075.1,286046995.9,Y
1697728095.9,286046999.6,P
1697728115.7,286046999.4,N
1697728135.5,286047000.2,N
1697728155.4,286046998.8,N
1697728175.2,286047000.5,N
1697728195.0,286047000.3,N
1697728196.0,286047000.3,N
1697728215.8,286047005.3,Y
1697728235.6,286047006.3,P
1697728255.5,286047005.8,N
1697728275.3,286047003.1,N
1697728295.1,286047005.7,N
1697728315.9,286047007.4,N
1697728335.7,286047004.9,N
1697728355.6,286047009.1,Y
1697728375.4,286047001.3,P
1697728395.2,286047002.1,N
1697728415.1,286047004.2,N
1697728416.0,286047004.2,N
1697728435.8,286047005.6,Y
1697728455.7,286047001.5,P
1697728475.5,286047002.1,N
1697728495.3,286047001.6,N
1697728515.2,286047001.3,N
1697728535.0,286047002.3,Y
1697728535.9,286047002.3,P
1697728555.8,286046996.7,P
1697728575.6,286046997.8,N
1697728595.4,286046997.3,N
1697728615.3,286046993.9,N
1697728635.1,286046993.4,N
1697728655.8,286046994.2,N
1697728675.7,286046995.1,N
1697728695.5,286046993.9,N
1697728715.4,286046994.2,N
1697728735.2,286046994.8,N
1697728755.0,286046994.0,N
1697728755.9,286046994.0,N
1697728775.8,286046994.2,N
1697728795.6,286046990.1,Y
1697728815.5,286046996.5,P
1697728835.3,286046996.9,P
1697728855.1,286046996.8,P
1697728875.9,286047000.1,N
1697728895.7,286047000.5,N
1697728915.5,286047004.2,N
1697728935.4,286047002.5,N
1697728955.2,286047000.2,N
1697728975.1,286046999.8,N
1697728976.0,286046999.8,N
1697728995.8,286047004.3,N
1697729015.6,286047003.3,N
1697729035.5,286047004.5,N
1697729055.3,286047008.6,N
1697729075.2,286047005.1,N
1697729095.9,286047005.1,N
1697729115.7,286047006.7,N
1697729135.6,286047007.5,N
1697729155.4,286047005.6,N
1697729175.2,286047003.5,N
1697729195.1,286047000.1,N
1697729196.0,286047000.1,N
1697729215.8,286047000.0,N
1697729235.7,286047002.8,N
1697729255.5,286047000.1,N
1697729275.3,286047003.2,N
1697729295.2,286047003.7,N
1697729315.0,286047004.2,N
1697729315.9,286047004.2,N
1697729335.8,286047005.4,N
1697729355.6,286047005.4,N
1697729375.4,286047002.9,N
1697729395.3,286047002.7,N
1697729415.1,286047002.6,N
1697729435.8,286047004.3,N
1697729455.7,286047002.0,N
1697729475.5,286047003.6,N
1697729495.4,286047006.7,N
1697729515.2,286047004.6,N
1697729535.0,286047005.4,N
1697729535.9,286047005.4,N
1697729555.8,286047005.7,N
1697729575.6,286047005.4,N
1697729595.4,286047005.3,N
1697729615.3,286047005.9,N
1697729635.1,286047006.0,N
1697729655.9,286047004.6,N
1697729675.7,286047004.5,N
1697729695.5,286047005.6,N
1697729715.4,286047004.4,N
1697729735.2,286047002.5,N
1697729755.1,286047004.0,N
1697729756.0,286047004.0,N
1697729775.8,286047003.2,N
1697729795.6,286047003.2,N
1697729815.5,286047002.0,N
1697729835.3,286047002.6,N
1697729855.1,286047004.1,Y
1697729875.9,286046997.4,P
1697729895.7,286046999.1,N
1697729915.6,286047002.6,N
1697729935.4,286047005.8,N
1697729955.2,286047005.4,N
1697729975.1,286047004.4,N
1697729976.0,286047004.4,N
1697729995.8,286047003.8,N
1697730015.6,286047005.6,N
1697730035.5,286047008.6,Y
1697730055.3,286047002.2,P
1697730075.2,286047002.7,P
1697730095.9,286047001.3,N
1697730115.7,286047000.3,N
1697730135.6,286047001.1,N
1697730155.4,286046996.9,Y
1697730175.3,286046997.2,P
1697730195.1,286046998.1,N
1697730196.0,286046998.1,N
1697730215.8,286046998.2,N
1697730235.7,286046998.1,N
1697730255.5,286047000.6,N
1697730275.3,286047002.0,N
1697730295.2,286047001.3,N
1697730315.0,286047004.1,N
1697730315.9,286047004.1,N
1697730335.8,286047003.2,N
1697730355.6,286047004.8,N
1697730375.4,286047003.0,N
1697730395.3,286047004.8,N
1697730415.1,286047005.5,N
1697730435.8,286047005.5,N
1697730455.7,286047003.3,N
1697730475.5,286047005.9,N
1697730495.4,286047004.7,N
1697730515.2,286047006.0,N
1697730535.0,286047006.8,N
1697730535.9,286047006.8,N
1697730555.8,286047006.8,N
1697730575.6,286047004.2,N
1697730595.4,286047001.7,N
1697730615.3,286047001.9,N
1697730635.1,286047005.8,N
1697730655.9,286047003.6,N
1697730675.7,286047003.1,N
1697730695.5,286047003.2,N
1697730715.4,286047004.7,N
1697730735.2,286047004.6,N
1697730755.0,286047006.4,N
1697730756.0,286047006.4,N
1697730775.8,286047004.5,N
1697730795.6,286047006.6,Y
1697730815.5,286046999.8,P
1697730835.3,286047001.3,N
1697730855.1,286047000.5,N
1697730875.9,286047000.9,N
1697730895.7,286047000.7,N
1697730915.6,286046998.9,N
1697730935.4,286046998.1,N
1697730955.2,286047000.0,N
1697730975.1,286047000.4,N
1697730976.0,286047000.4,N
1697730995.8,286047001.7,N
1697731015.6,286047001.5,N
1697731035.5,286047004.6,Y
1697731055.3,286047003.7,P
1697731075.2,286047001.8,N
1697731095.9,286047002.7,N
1697731115.7,286046999.7,N
1697731135.6,286047000.7,N
1697731155.4,286046998.1,N
1697731175.2,286047002.2,N
1697731195.1,286046998.6,N
1697731196.0,286046998.6,N
